Waarnemingen

Advertentie
Mijn weer
Antwerpen, België (6450): temperatuur & dauwpunt: 11.06.2019 23:00:00 - 17.06.2019 23:00:00 (CEST)Antwerpen, België (6450): windsnelheid & windstoten: 11.06.2019 23:00:00 - 17.06.2019 23:00:00 (CEST)Antwerpen, België (6450): windrichting: 11.06.2019 23:00:00 - 17.06.2019 23:00:00 (CEST)Antwerpen, België (6450): luchtdruk: 11.06.2019 23:00:00 - 17.06.2019 23:00:00 (CEST)Antwerpen, België (6450): zicht: 11.06.2019 23:00:00 - 17.06.2019 23:00:00 (CEST)
Datum & Tijd tt [°C] td [°C] ff [km/u] ff [kn] fx [km/u] fx [kn] dd ppp [hPa] vv [km]
17.06.2019 23:00:00 20,1 14,1 8 4 - - NNO 1017,1 10
17.06.2019 22:00:00 22,6 12,1 5 3 14 8 W 1017,1 10
17.06.2019 21:00:00 24,4 11,9 9 5 14 8 ZW 1017,0 10
17.06.2019 20:00:00 25,4 12,2 5 3 - - Z 1017,2 10
17.06.2019 19:00:00 25,2 11,2 11 6 18 10 ZW 1017,6 10
17.06.2019 18:00:00 24,5 11,6 11 6 22 12 WZW 1017,9 10
17.06.2019 17:00:00 24,8 11,1 5 3 - - - 1018,1 10
17.06.2019 16:00:00 25,6 11,9 8 4 22 12 - 1018,5 10
17.06.2019 15:00:00 24,5 11,6 9 5 22 12 ZZW 1019,0 10
17.06.2019 14:00:00 24,3 11,4 11 6 - - Z 1019,4 10
17.06.2019 13:00:00 23,9 10,5 9 5 25 14 ZZW 1019,8 10
17.06.2019 12:00:00 23,1 11,8 14 8 25 14 ZZW 1020,1 45
17.06.2019 11:00:00 21,8 12,2 11 6 - - Z 1020,6 10
17.06.2019 10:00:00 20,7 12,5 11 6 18 10 ZZO 1020,9 10
17.06.2019 09:00:00 19,3 13,2 9 5 14 8 Z 1021,0 10
17.06.2019 08:00:00 16,6 13,7 7 4 - - ZO 1020,8 45
17.06.2019 07:00:00 13,5 12,6 5 3 7 4 OZO 1020,9 10
17.06.2019 06:00:00 11,9 11,5 5 3 7 4 O 1020,9 10
17.06.2019 05:00:00 11,4 11,2 5 3 - - ZO 1020,9 2,7
17.06.2019 04:00:00 12,0 11,6 4 2 7 4 OZO 1021,2 5
17.06.2019 03:00:00 12,4 11,7 5 3 7 4 OZO 1021,3 2,7
17.06.2019 02:00:00 12,2 11,8 4 2 - - ZO 1021,3 9
17.06.2019 01:00:00 14,8 13,3 0 0 7 4 N 1021,4 10
17.06.2019 00:00:00 15,1 12,5 2 1 7 4 - 1021,5 10
16.06.2019 23:00:00 17,5 13,2 5 3 - - W 1021,3 10
16.06.2019 22:00:00 18,8 12,8 8 4 22 12 ZZW 1020,9 10
16.06.2019 21:00:00 20,0 12,2 15 8 25 14 ZZW 1020,8 10
16.06.2019 20:00:00 20,9 13,0 9 5 - - ZZW 1020,7 10
16.06.2019 19:00:00 19,9 14,4 9 5 40 21 W 1020,7 10
16.06.2019 18:00:00 21,4 10,9 13 7 25 14 ZZW 1020,4 10
16.06.2019 17:00:00 20,2 12,7 11 6 - - W 1020,6 10
16.06.2019 16:00:00 20,2 10,4 13 7 29 16 ZW 1020,7 10
16.06.2019 15:00:00 21,3 10,7 15 8 29 16 ZW 1020,6 10
16.06.2019 14:00:00 20,1 11,0 16 9 - - ZW 1020,6 10
16.06.2019 13:00:00 18,8 11,3 16 9 29 16 ZW 1020,7 10
16.06.2019 12:00:00 17,9 11,6 15 8 29 16 ZW 1020,4 10
16.06.2019 11:00:00 16,6 12,1 16 9 - - WZW 1020,2 10
16.06.2019 10:00:00 17,9 13,1 15 8 29 16 ZW 1019,7 10
16.06.2019 09:00:00 16,7 12,2 16 9 29 16 ZW 1019,3 10
16.06.2019 08:00:00 15,4 11,6 15 8 - - ZW 1018,8 10
16.06.2019 07:00:00 14,5 10,8 13 7 25 14 ZW 1018,8 10
16.06.2019 06:00:00 14,1 10,6 13 7 18 10 ZW 1018,3 10
16.06.2019 05:00:00 14,6 10,9 9 5 - - ZZW 1018,3 10
16.06.2019 04:00:00 14,7 11,7 9 5 14 8 Z 1017,9 10
16.06.2019 03:00:00 12,4 11,4 8 4 7 4 Z 1017,9 6
16.06.2019 02:00:00 12,5 12,5 4 2 - - ZO 1017,8 5
16.06.2019 01:00:00 14,4 13,4 5 3 7 4 OZO 1017,6 7
16.06.2019 00:00:00 14,5 13,9 2 1 4 2 - 1017,0 10
15.06.2019 23:00:00 13,8 13,0 4 2 - - ZO 1016,7 10
15.06.2019 22:00:00 14,7 13,2 8 4 7 4 OZO 1016,3 10
15.06.2019 21:00:00 17,3 13,5 5 3 14 8 ONO 1016,0 10
15.06.2019 20:00:00 17,8 13,4 9 5 - - NNO 1016,1 10
15.06.2019 19:00:00 17,1 14,0 15 8 32 18 N 1016,0 10
15.06.2019 18:00:00 19,9 12,8 8 4 18 10 ZO 1015,4 10
15.06.2019 17:00:00 19,9 13,9 2 1 - - - 1015,5 10
15.06.2019 16:00:00 18,5 13,3 2 1 14 8 - 1015,7 10
15.06.2019 15:00:00 17,8 13,4 8 4 18 10 NW 1015,8 10
15.06.2019 14:00:00 15,8 14,5 11 6 - - W 1016,0 10
15.06.2019 13:00:00 15,2 14,6 11 6 22 12 W 1015,1 10
15.06.2019 12:00:00 14,9 14,6 13 7 22 12 W 1014,5 4,0
15.06.2019 11:00:00 15,9 14,8 9 5 - - ZW 1013,9 10
15.06.2019 10:00:00 15,0 14,3 8 4 22 12 W 1013,3 7
15.06.2019 09:00:00 14,4 14,0 14 8 22 12 WZW 1012,8 3,5
15.06.2019 08:00:00 13,9 13,6 2 1 - - - 1011,1 6
15.06.2019 07:00:00 13,5 13,2 11 6 22 12 N 1011,6 4,4
15.06.2019 06:00:00 13,6 13,2 16 9 25 14 NW 1011,8 4,7
15.06.2019 05:00:00 14,1 13,7 13 7 - - WNW 1011,4 4,2
15.06.2019 04:00:00 15,5 13,3 7 4 18 10 NW 1011,3 8
15.06.2019 03:00:00 16,1 12,3 11 6 22 12 N 1010,9 10
15.06.2019 02:00:00 16,4 11,8 11 6 - - N 1011,5 45
15.06.2019 01:00:00 16,7 12,2 11 6 22 12 NNO 1012,3 10
15.06.2019 00:00:00 17,1 12,8 9 5 22 12 N 1013,0 10
14.06.2019 23:00:00 17,8 12,7 11 6 - - N 1013,3 10
14.06.2019 22:00:00 19,1 13,4 11 6 25 14 N 1013,0 10
14.06.2019 21:00:00 21,8 14,1 9 5 14 8 NW 1012,5 10
14.06.2019 20:00:00 23,2 13,3 4 2 - - - 1012,6 10
14.06.2019 19:00:00 23,3 12,9 9 5 25 14 ZZW 1012,8 10
14.06.2019 18:00:00 22,9 12,3 16 9 32 18 ZZW 1012,9 10
14.06.2019 17:00:00 23,2 12,4 13 7 - - ZW 1013,2 10
14.06.2019 16:00:00 22,5 13,2 16 9 32 18 ZZW 1013,8 10
14.06.2019 15:00:00 21,3 12,0 15 8 29 16 ZZW 1014,4 10
14.06.2019 14:00:00 21,0 11,7 18 10 - - ZZW 1014,4 10
14.06.2019 13:00:00 20,4 12,6 13 7 29 16 Z 1014,4 10
14.06.2019 12:00:00 18,5 13,6 13 7 22 12 ZZO 1014,4 10
14.06.2019 11:00:00 16,7 13,3 9 5 - - Z 1014,1 10
14.06.2019 10:00:00 15,0 13,3 9 5 18 10 OZO 1012,8 10
14.06.2019 09:00:00 13,3 11,9 9 5 14 8 Z 1014,4 10
14.06.2019 08:00:00 12,4 12,0 8 4 - - ZO 1013,9 10
14.06.2019 07:00:00 11,6 11,2 4 2 7 4 - 1013,2 10
14.06.2019 06:00:00 10,7 10,7 5 3 7 4 ZO 1013,0 3,8
14.06.2019 05:00:00 10,7 10,7 2 1 - - OZO 1012,8 2,5
14.06.2019 04:00:00 11,2 11,0 8 4 11 6 ZO 1012,8 10
14.06.2019 03:00:00 13,3 12,0 9 5 14 8 ZZO 1013,1 10
14.06.2019 02:00:00 12,4 11,8 9 5 - - Z 1013,3 10
14.06.2019 01:00:00 12,9 12,2 9 5 14 8 ZZO 1013,3 10
14.06.2019 00:00:00 13,4 12,4 9 5 14 8 Z 1013,6 10
13.06.2019 23:00:00 13,8 12,2 5 3 - - ZW 1012,8 10
13.06.2019 22:00:00 14,0 12,4 8 4 18 10 ZZO 1012,2 10
13.06.2019 21:00:00 14,5 11,8 2 1 14 8 - 1011,7 10
13.06.2019 20:00:00 15,0 11,9 5 3 - - WZW 1011,2 10
13.06.2019 19:00:00 17,5 10,1 18 10 36 19 ZZW 1010,5 10
13.06.2019 18:00:00 17,5 11,6 22 12 43 23 Z 1010,7 10
13.06.2019 17:00:00 16,4 13,1 21 11 - - ZZW 1011,0 10
13.06.2019 16:00:00 17,5 10,1 24 13 43 23 ZZW 1011,0 10
13.06.2019 15:00:00 15,8 12,2 24 13 40 21 Z 1011,4 10
13.06.2019 14:00:00 14,3 10,6 16 9 - - ZZW 1011,5 9
13.06.2019 13:00:00 16,4 8,1 18 10 43 23 ZZW 1011,5 10
13.06.2019 12:00:00 16,2 8,1 28 15 43 23 ZZW 1011,4 10
13.06.2019 11:00:00 15,6 8,8 22 12 - - ZZW 1011,1 10
13.06.2019 10:00:00 15,3 9,3 22 12 47 25 ZZW 1010,9 10
13.06.2019 09:00:00 13,9 8,9 22 12 47 25 ZZW 1010,7 10
13.06.2019 08:00:00 13,4 9,5 22 12 - - Z 1010,5 10
13.06.2019 07:00:00 12,8 9,6 18 10 32 18 ZZW 1010,4 10
13.06.2019 06:00:00 12,7 10,0 16 9 29 16 Z 1010,0 10
13.06.2019 05:00:00 11,8 10,0 11 6 - - Z 1009,4 10
13.06.2019 04:00:00 11,7 9,8 11 6 18 10 Z 1009,4 45
13.06.2019 03:00:00 11,6 9,7 13 7 18 10 ZZO 1009,5 10
13.06.2019 02:00:00 11,8 9,7 9 5 - - ZZO 1009,6 10
13.06.2019 01:00:00 12,6 9,8 9 5 18 10 ZZO 1009,7 10
13.06.2019 00:00:00 13,5 9,2 9 5 22 12 Z 1009,8 10
12.06.2019 23:00:00 14,5 10,1 11 6 - - Z 1009,9 10
12.06.2019 22:00:00 15,6 9,9 9 5 22 12 ZW 1009,7 10
12.06.2019 21:00:00 16,3 10,2 13 7 25 14 ZZW 1009,6 10
12.06.2019 20:00:00 17,6 9,8 16 9 - - ZW 1008,9 10
12.06.2019 19:00:00 18,1 11,0 13 7 29 16 ZZW 1008,9 10
12.06.2019 18:00:00 16,9 11,1 16 9 32 18 WZW 1009,1 10
12.06.2019 17:00:00 16,5 12,2 21 11 - - WZW 1009,4 10
12.06.2019 16:00:00 14,7 12,6 15 8 25 14 WZW 1009,4 10
12.06.2019 15:00:00 13,7 12,4 5 3 14 8 NW 1009,3 4,0
12.06.2019 14:00:00 13,3 12,8 7 4 - - N 1009,3 4,0
12.06.2019 13:00:00 13,7 12,9 8 4 14 8 N 1009,1 6
12.06.2019 12:00:00 14,0 13,2 11 6 14 8 NNW 1008,7 4,0
12.06.2019 11:00:00 13,4 12,6 2 1 - - - 1009,2 4,5
12.06.2019 10:00:00 13,5 13,0 8 4 14 8 NNW 1008,7 4,0
12.06.2019 09:00:00 13,1 12,4 4 2 14 8 - 1009,1 3,5
12.06.2019 08:00:00 13,3 12,3 8 4 - - N 1009,1 7
12.06.2019 07:00:00 13,6 12,5 8 4 14 8 NO 1009,7 7
12.06.2019 06:00:00 13,9 11,7 9 5 14 8 NNO 1009,8 10
12.06.2019 05:00:00 13,8 11,9 4 2 - - NNO 1010,4 10
12.06.2019 04:00:00 14,0 11,9 9 5 14 8 ONO 1011,0 10
12.06.2019 03:00:00 14,1 12,6 8 4 11 6 O 1011,6 10
12.06.2019 02:00:00 15,7 10,8 2 1 - - - 1011,5 10
12.06.2019 01:00:00 15,6 10,8 4 2 11 6 - 1011,5 10
12.06.2019 00:00:00 15,4 11,9 5 3 11 6 O 1011,8 10
11.06.2019 23:00:00 15,8 11,1 4 2 - - - 1012,2 10

tt = temperatuur
td = dauwpunt
ff = windsnelheid
fx = windstoten
dd = windrichting
ppp = luchtdruk
vv = zicht

Weerstations in de omgeving